Temporada 2023 · Etapa 15

Singapore Grand Prix

2023-09-17 · Marina Bay Street Circuito · Singapore · Singapore Grand Prix · 62Lap · 306.143km
Ferrari 1:46:37.418
Vitória de equipa 37pt P1 · P4
McLaren +0.812
Mercedes +1.269
Volta mais rápida
1:35.867 · L47
Abandono
3
Valtteri Bottas L51 Esteban Ocon L42 Yuki Tsunoda L0
Clima
30°/36°
média ar/pista · seco · humidade 72%
Safety car
2
acionado na volta L20, L44
Uso de pneus Direção de prova
Storylines · This Grand Prix & circuit
Mais vitórias neste GP
Sebastian Vettel 5 vitórias
Lewis Hamilton ativo 4 vitórias
Conversão pole-vitória 11/16 68.8%
Most SC/VSC · all-time P14
Chegada mais apertada · all-time P20
Circuito Info
Marina Bay Street Circuito Marina Bay, Singapore
62Lap 306.143km 17 corridas held (2008–) Recorde de volta 1:33.808 · Lewis Hamilton (2025)
Recordes Watch · Active drivers ranked at this Grand Prix
P2 Lewis Hamilton 4 vitórias · → Sebastian Vettel -1
P3 Fernando Alonso 2 vitórias · → Lewis Hamilton -2
P4 Lando Norris 1 vitórias · → Fernando Alonso -1
P1 Lewis Hamilton 16 largadas · GP #1
P2 Fernando Alonso 15 largadas · → Lewis Hamilton -1
P4 Nico Hülkenberg 12 largadas · → Sebastian Vettel -1
Corrida Trace · position by lap
SC · voltas 20–22 VSC · voltas 44–45 largada parada SG 1 6 11 16 21 26 31 36 41 46 51 56 61 FIN Sainz · parada nos boxes L20 Sainz SAI Sainz SAI Norris · parada nos boxes L20 Norris NOR Norris NOR Hamilton · parada nos boxes L20 Hamilton · parada nos boxes L44 Hamilton HAM Hamilton HAM Leclerc · parada nos boxes L20 Leclerc LEC Leclerc LEC Verstappen · parada nos boxes L40 Verstappen VER Verstappen VER Gasly · parada nos boxes L20 Gasly GAS Gasly GAS Piastri · parada nos boxes L20 Piastri PIA Piastri PIA Pérez · parada nos boxes L39 Pérez · +5s somado após a corrida Pérez PER Pérez PER Lawson · parada nos boxes L20 Lawson LAW Lawson LAW Magnussen · parada nos boxes L20 Magnussen · parada nos boxes L43 Magnussen MAG Magnussen MAG Albon · parada nos boxes L20 Albon · parada nos boxes L43 Albon ALB Albon ALB Zhou · parada nos boxes L2 Zhou · parada nos boxes L20 Zhou ZHO Zhou ZHO Hülkenberg · parada nos boxes L20 Hülkenberg HUL Hülkenberg HUL Sargeant · parada nos boxes L19 Sargeant · parada nos boxes L43 Sargeant SAR Sargeant SAR Alonso · parada nos boxes L20 Alonso · parada nos boxes L44 · punição cumprida Alonso ALO Alonso ALO Russell · parada nos boxes L20 Russell · parada nos boxes L44 Russell · parou L61 · classificado P16 Russell RUS Russell RUS Bottas · parada nos boxes L40 Bottas · abandono L51 Bottas BOT Bottas BOT Ocon · parada nos boxes L20 Ocon · abandono L42 Ocon OCO Ocon OCO Tsunoda · abandono L0 Tsunoda TSU Tsunoda TSU
SC·VSC parada nos boxes punição cumprida nos boxes SG Grelha de partida FIN classificação oficial penalização somada após a corrida carro parado posição em cada volta (desde 1996)
PosPilotoTeamGrelhaVoltaTempo / StatusPontos
1 55 Carlos Sainz Ferrari 1 62 1:46:37.418 25
2 4 Lando Norris McLaren 4 62 +0.812 18
3 44 Lewis Hamilton FL Mercedes 5 62 +1.269 16
4 16 Charles Leclerc Ferrari 3 62 +21.177 12
5 1 Max Verstappen Red Bull 11 62 +21.441 10
6 10 Pierre Gasly Alpine F1 Team 12 62 +38.441 8
7 81 Oscar Piastri McLaren 17 62 +41.479 6
8 11 Sergio Pérez Red Bull 13 62 +59.534 4
9 40 Liam Lawson AlphaTauri 10 62 +1:05.918 2
10 20 Kevin Magnussen Haas F1 Team 6 62 +1:12.116 1
11 23 Alexander Albon Williams 14 62 +1:13.417
12 24 Guanyu Zhou Alfa Romeo 19 62 +1:23.649
13 27 Nico Hülkenberg Haas F1 Team 9 62 +1:26.201
14 2 Logan Sargeant Williams 18 62 +1:26.889
15 14 Fernando Alonso Aston Martin 7 62 +1:27.603
16 63 George Russell Mercedes 2 61
R 77 Valtteri Bottas Alfa Romeo 16 51 Retired
R 31 Esteban Ocon Alpine F1 Team 8 42 Retired
R 22 Yuki Tsunoda AlphaTauri 15 0 Retired
W 18 Lance Stroll Aston Martin 0 0 Withdrew
PosPilotoTeamQ1Q2Q3Diferença para a pole
1 55 Carlos Sainz Ferrari 1:32.339 1:31.439 1:30.984 POLE Q3
2 63 George Russell Mercedes 1:32.331 1:31.743 1:31.056 +0.072 Q3
3 16 Charles Leclerc Ferrari 1:32.406 1:32.012 1:31.063 +0.079 Q3
4 4 Lando Norris McLaren 1:32.483 1:31.951 1:31.270 +0.286 Q3
5 44 Lewis Hamilton Mercedes 1:32.651 1:32.019 1:31.485 +0.501 Q3
6 20 Kevin Magnussen Haas F1 Team 1:32.242 1:31.892 1:31.575 +0.591 Q3
7 14 Fernando Alonso Aston Martin 1:32.584 1:31.835 1:31.615 +0.631 Q3
8 31 Esteban Ocon Alpine F1 Team 1:32.369 1:32.089 1:31.673 +0.689 Q3
9 27 Nico Hülkenberg Haas F1 Team 1:32.100 1:31.994 1:31.808 +0.824 Q3
10 40 Liam Lawson AlphaTauri 1:32.215 1:32.166 1:32.268 +1.182 Q2
11 1 Max Verstappen Red Bull 1:32.398 1:32.173 +1.189 Q2
12 10 Pierre Gasly Alpine F1 Team 1:32.452 1:32.274 +1.290 Q2
13 11 Sergio Pérez Red Bull 1:32.099 1:32.310 +1.115 Q1
14 23 Alexander Albon Williams 1:32.668 1:33.719 +1.684 Q1
15 22 Yuki Tsunoda AlphaTauri 1:31.991 +1.007 Q1
16 77 Valtteri Bottas Alfa Romeo 1:32.809 +1.825 Q1
17 81 Oscar Piastri McLaren 1:32.902 +1.918 Q1
18 2 Logan Sargeant Williams 1:33.252 +2.268 Q1
19 24 Guanyu Zhou Alfa Romeo 1:33.258 +2.274 Q1
20 18 Lance Stroll Aston Martin 1:33.397 +2.413 Q1
Grelha de partida
Oficial
Final grid as classificado, including any saída dos boxes largadas. Source: Jolpica-F1. The arrow compares the grid slot with the a qualificação classification; hover a drop to see the stewards document behind it.
Sem dados desta sessão.
PosPilotoMelhor voltaDiferençaVoltas
1 16 Charles Leclerc 1:33.350 25
2 55 Carlos Sainz 1:33.428 +0.078 24
3 1 Max Verstappen 1:33.476 +0.126 22
4 4 Lando Norris 1:33.522 +0.172 24
5 44 Lewis Hamilton 1:33.540 +0.190 21
6 63 George Russell 1:33.695 +0.345 25
7 11 Sergio Pérez 1:33.725 +0.375 22
8 14 Fernando Alonso 1:33.974 +0.624 28
9 22 Yuki Tsunoda 1:34.042 +0.692 25
10 31 Esteban Ocon 1:34.066 +0.716 24
11 18 Lance Stroll 1:34.568 +1.218 25
12 10 Pierre Gasly 1:34.639 +1.289 23
13 23 Alexander Albon 1:34.657 +1.307 19
14 77 Valtteri Bottas 1:34.802 +1.452 25
15 20 Kevin Magnussen 1:34.887 +1.537 23
16 40 Liam Lawson 1:34.894 +1.544 27
17 27 Nico Hülkenberg 1:34.985 +1.635 22
18 24 Guanyu Zhou 1:35.456 +2.106 25
19 81 Oscar Piastri 1:35.474 +2.124 22
20 2 Logan Sargeant 1:35.778 +2.428 24
Classified by best lap · source OpenF1 (2023+)
PosPilotoMelhor voltaDiferençaVoltas
1 55 Carlos Sainz 1:32.120 26
2 16 Charles Leclerc 1:32.138 +0.018 27
3 63 George Russell 1:32.355 +0.235 25
4 14 Fernando Alonso 1:32.478 +0.358 25
5 44 Lewis Hamilton 1:32.585 +0.465 23
6 4 Lando Norris 1:32.711 +0.591 23
7 11 Sergio Pérez 1:32.812 +0.692 23
8 1 Max Verstappen 1:32.852 +0.732 23
9 20 Kevin Magnussen 1:33.017 +0.897 25
10 77 Valtteri Bottas 1:33.105 +0.985 24
11 27 Nico Hülkenberg 1:33.139 +1.019 22
12 40 Liam Lawson 1:33.285 +1.165 27
13 31 Esteban Ocon 1:33.361 +1.241 25
14 18 Lance Stroll 1:33.390 +1.270 25
15 81 Oscar Piastri 1:33.461 +1.341 23
16 22 Yuki Tsunoda 1:33.477 +1.357 27
17 24 Guanyu Zhou 1:33.575 +1.455 25
18 10 Pierre Gasly 1:33.824 +1.704 24
19 2 Logan Sargeant 1:34.327 +2.207 28
20 23 Alexander Albon 1:35.558 +3.438 5
Classified by best lap · source OpenF1 (2023+)
PosPilotoMelhor voltaDiferençaVoltas
1 55 Carlos Sainz 1:32.065 23
2 63 George Russell 1:32.134 +0.069 20
3 4 Lando Norris 1:32.303 +0.238 17
4 1 Max Verstappen 1:32.378 +0.313 21
5 16 Charles Leclerc 1:32.381 +0.316 25
6 44 Lewis Hamilton 1:32.535 +0.470 18
7 81 Oscar Piastri 1:32.730 +0.665 18
8 11 Sergio Pérez 1:32.784 +0.719 20
9 27 Nico Hülkenberg 1:32.896 +0.831 18
10 22 Yuki Tsunoda 1:32.945 +0.880 18
11 20 Kevin Magnussen 1:32.970 +0.905 16
12 31 Esteban Ocon 1:32.979 +0.914 19
13 14 Fernando Alonso 1:33.051 +0.986 19
14 18 Lance Stroll 1:33.126 +1.061 23
15 10 Pierre Gasly 1:33.351 +1.286 19
16 40 Liam Lawson 1:33.357 +1.292 19
17 23 Alexander Albon 1:33.370 +1.305 15
18 77 Valtteri Bottas 1:33.540 +1.475 26
19 24 Guanyu Zhou 1:33.637 +1.572 24
20 2 Logan Sargeant 1:33.708 +1.643 16
Classified by best lap · source OpenF1 (2023+)
#PilotoTempo de voltaVolta
1 44 Lewis Hamilton 1:35.867 L47
2 44 Lewis Hamilton 1:36.122 L48
3 44 Lewis Hamilton 1:36.220 L49
4 63 George Russell 1:36.273 L46
5 44 Lewis Hamilton 1:36.411 L56
6 63 George Russell 1:36.419 L47
7 14 Fernando Alonso 1:36.456 L47
8 44 Lewis Hamilton 1:36.462 L50
9 44 Lewis Hamilton 1:36.479 L51
10 44 Lewis Hamilton 1:36.555 L52
Top 10 mais rápida race voltas — #1 is the mais rápida lap of a corrida(FL).
Pit stops · como se comparam
30s 35s 40s 45s 50s 55s 60s 65s mediana 30.6s Sergio Pérez · L39 · 28.977s Oscar Piastri · L20 · 29.369s Lando Norris · L20 · 29.485s Carlos Sainz · L20 · 29.499s Max Verstappen · L40 · 29.698s Esteban Ocon · L20 · 29.755s Alexander Albon · L43 · 29.787s George Russell · L20 · 29.976s Guanyu Zhou · L2 · 30.032s George Russell · L44 · 30.039s Alexander Albon · L20 · 30.138s Valtteri Bottas · L40 · 30.487s Guanyu Zhou · L20 · 30.637s Fernando Alonso · L20 · 30.670s Logan Sargeant · L43 · 31.018s Kevin Magnussen · L20 · 31.475s Pierre Gasly · L20 · 31.802s Liam Lawson · L20 · 32.348s Lewis Hamilton · L20 · 32.631s Charles Leclerc · L20 · 32.888s Kevin Magnussen · L43 · 33.078s Lewis Hamilton · L44 · 33.581s Nico Hülkenberg · L20 · 35.497s Fernando Alonso · L44 · 52.708s · punição cumprida Logan Sargeant · L19 · 63.543s
mais rápida 28.977s Sergio Pérez mais lenta 63.543s Logan Sargeant punição cumprida tempo de passagem pelos boxes — um ponto por paragem
PilotoParagemVoltaTempoPassagem pela saída dos boxes
24 Guanyu Zhou 1 2 20:07:21 30.032s
2 Logan Sargeant 1 19 20:36:42 63.543s
23 Alexander Albon 1 20 20:37:59 30.138s
4 Lando Norris 1 20 20:37:31 29.485s
31 Esteban Ocon 1 20 20:37:43 29.755s
81 Oscar Piastri 1 20 20:37:58 29.369s
63 George Russell 1 20 20:37:29 29.976s
55 Carlos Sainz 1 20 20:37:19 29.499s
20 Kevin Magnussen 1 20 20:37:50 31.475s
16 Charles Leclerc 1 20 20:37:28 32.888s
40 Liam Lawson 1 20 20:37:55 32.348s
27 Nico Hülkenberg 1 20 20:37:53 35.497s
14 Fernando Alonso 1 20 20:37:39 30.670s
44 Lewis Hamilton 1 20 20:37:33 32.631s
10 Pierre Gasly 1 20 20:37:54 31.802s
24 Guanyu Zhou 2 20 20:38:30 30.637s
11 Sergio Pérez 1 39 21:11:53 28.977s
1 Max Verstappen 1 40 21:13:21 29.698s
77 Valtteri Bottas 1 40 21:13:47 30.487s
20 Kevin Magnussen 2 43 21:19:04 33.078s
2 Logan Sargeant 2 43 21:19:17 31.018s
23 Alexander Albon 2 43 21:18:51 29.787s
63 George Russell 2 44 21:20:21 30.039s
14 Fernando Alonso 2 44 21:20:59 52.708s
44 Lewis Hamilton 2 44 21:20:24 33.581s
paragens
SG 10 20 30 40 50 L62
55
1
M19
H43
4
1
M19
H43
44
2
M19
H24
M19
16
1
S19·+3
H43
1
1
H39
M23
10
1
M19
H43
81
1
M19
H43
11
1
H38
M24
40
1
M19
H43
20
2
M19
H23
S20·+3
23
2
M19
H23
M20
24
2
S1
H18
M43
27
1
M19
H43
2
2
M18
H24
M20
14
2
M19
H24
S19·+2
63
2
M19
H24
M18
77
1
H39
M12
31
1
M19
H23
22
0
S1
S Soft M Medium H Hard I Intermediate W Wet SC·VSC parada nos boxes punição cumprida nos boxes
Corrida · largura da barra = voltas com esse jogo, ·+N = montado usado com N voltas prévias · fonte OpenF1 (2023+)
Compostos indicados para este Grande Prémio
C3 Duro C4 Médio C5 Macio
A Pirelli indica três dos seus compostos secos para cada prova; quanto maior o número C, mais macio é o pneu. Documento da FIA ↗
Mais posições ganhas em pista
11
+19
P13→P8
1
+18
P11→P5
24
+11
P19→P12
77
+11
P16→P—
23
+10
P14→P11
81
+8
P17→P7
20
+8
P6→P10
27
+8
P9→P13
Mais posições perdidas
Sergio Pérez −14 Fernando Alonso −14 Max Verstappen −13
Corrida · Soma das posições ganhas em pista volta a volta — excluem-se a volta de largada e as voltas de boxes do próprio piloto. Dados de voltas de corrida desde 1996.
PilotoTipoVoltaCumpridaAplicadaMotivo
23 Alexander Albon No further action Car 23 overtaking Car 11 under VSC at 21:19. (No further action.) Documento da FIA ↗
Car 23 overtaking Car 11 under VSC at 21:19. (No further action.) Documento da FIA ↗
18 Lance Stroll Punição no grid PIT (saída dos boxes start (quali P20))
PIT (saída dos boxes start (quali P20))
11 Sergio Pérez Time penalty Após a corrida +5s · 1pt Turn 13 incident between Cars 11 and 23 at 21:44. (5 second time penalty. 1 penalty point (total of 3 for the 12 month period).) Documento da FIA ↗
Cumprida Após a corrida · +5s · 1pt Turn 13 incident between Cars 11 and 23 at 21:44. (5 second time penalty. 1 penalty point (total of 3 for the 12 month period).) Documento da FIA ↗
14 Fernando Alonso Time penalty 23 44 +5s Failure to enter the saída dos boxes to the left of the white line, contrary to the Corrida Director’s Event Note (item 14.1, document 16) (5 second time penalty.) Documento da FIA ↗
Volta 23 · Cumprida 44 · +5s Failure to enter the saída dos boxes to the left of the white line, contrary to the Corrida Director’s Event Note (item 14.1, document 16) (5 second time penalty.) Documento da FIA ↗
20 Kevin Magnussen Black-and-white flag warning 26 FORCING ANOTHER DRIVER OFF THE TRACK
Volta 26 FORCING ANOTHER DRIVER OFF THE TRACK
Volta = volta em que a punição foi aplicada · Cumprida = volta em que foi cumprida nos boxes (em branco: somada ao tempo de corrida)
Time, drive-through and stop-go penalties come from race control messages (OpenF1, 2023+). Grid penalties never appear there — the stewards publish them as documents after the session — so they are worked back from the starting grid against the a qualificação classification, which gives places actually lost rather than the figure written in the decision.
PilotoTipoVoltaCumpridaAplicadaMotivo
24 Guanyu Zhou Pit lane start The following Power Unit elements have been usados: 5th Internal Combustion Motor (ICE) 5th Turbo Charger (TC) 5th Motor Generator Unit - Heat (MGU-H) 3rd Control Electronics (CE) All elements above were replaced without the approval of the FIA Technical D (Required to start the Corrida from the saída dos boxes.) Documento da FIA ↗
The following Power Unit elements have been usados: 5th Internal Combustion Motor (ICE) 5th Turbo Charger (TC) 5th Motor Generator Unit - Heat (MGU-H) 3rd Control Electronics (CE) All elements above were replaced without the approval of the FIA Technical D (Required to start the Corrida from the saída dos boxes.) Documento da FIA ↗
1 Max Verstappen Advertência €5,000 Car 1 unnecessarily impeding Car 22 between Turns 3 and 4 at 21:57. (Advertência (Driving). This is the driver’s 2nd reprimand of the season. The competitor (Oracle Red Bu) Documento da FIA ↗
€5,000 Car 1 unnecessarily impeding Car 22 between Turns 3 and 4 at 21:57. (Advertência (Driving). This is the driver’s 2nd reprimand of the season. The competitor (Oracle Red Bu) Documento da FIA ↗
1 Max Verstappen No further action Car 1 unnecessarily impeding car 2 between Turns 17 and 18 at 21:17. (No further action.) Documento da FIA ↗
Car 1 unnecessarily impeding car 2 between Turns 17 and 18 at 21:17. (No further action.) Documento da FIA ↗
1 Max Verstappen Advertência Car 1 unnecessarily impeding cars exiting the Pit Lane at 21:14. (Advertência (Driving). This is the driver’s 1st reprimand of the season.) Documento da FIA ↗
Car 1 unnecessarily impeding cars exiting the Pit Lane at 21:14. (Advertência (Driving). This is the driver’s 1st reprimand of the season.) Documento da FIA ↗
2 Logan Sargeant Advertência €5,000 Car 2 unnecessarily impeding Car 18 in turn 8 at 21:04. (Advertência (Driving) on the Piloto. This is the driver’s 1st reprimand of the season. The competitor ) Documento da FIA ↗
€5,000 Car 2 unnecessarily impeding Car 18 in turn 8 at 21:04. (Advertência (Driving) on the Piloto. This is the driver’s 1st reprimand of the season. The competitor ) Documento da FIA ↗
Volta = volta em que a punição foi aplicada · Cumprida = volta em que foi cumprida nos boxes (em branco: somada ao tempo de corrida)
Time, drive-through and stop-go penalties come from race control messages (OpenF1, 2023+). Grid penalties never appear there — the stewards publish them as documents after the session — so they are worked back from the starting grid against the a qualificação classification, which gives places actually lost rather than the figure written in the decision.
PilotoTipoVoltaCumpridaAplicadaMotivo
55 Carlos Sainz Fine €100 Pit lane speeding – 60.4 km/h (The competitor (Scuderia Ferrari) is fined €100.) Documento da FIA ↗
€100 Pit lane speeding – 60.4 km/h (The competitor (Scuderia Ferrari) is fined €100.) Documento da FIA ↗
27 Nico Hülkenberg Fine €400 Pit lane speeding – 63.7 km/h (The competitor (MoneyGram Haas F1 Team) is fined €400.) Documento da FIA ↗
€400 Pit lane speeding – 63.7 km/h (The competitor (MoneyGram Haas F1 Team) is fined €400.) Documento da FIA ↗
77 Valtteri Bottas Black-and-white flag warning FAILING TO FOLLOW RACE DIRECTORS INSTRUCTIONS – CROSSING THE LINE AT PIT ENTRY
FAILING TO FOLLOW RACE DIRECTORS INSTRUCTIONS – CROSSING THE LINE AT PIT ENTRY
Volta = volta em que a punição foi aplicada · Cumprida = volta em que foi cumprida nos boxes (em branco: somada ao tempo de corrida)
Time, drive-through and stop-go penalties come from race control messages (OpenF1, 2023+). Grid penalties never appear there — the stewards publish them as documents after the session — so they are worked back from the starting grid against the a qualificação classification, which gives places actually lost rather than the figure written in the decision.
DocTítuloAssuntoPublished(CET)
Event Notes - Pirelli Preview ↗ 2023-09-13 06:16
2023-09-13 06:16 CET
Car Display Procedure ↗ 2023-09-14 08:06
2023-09-14 08:06 CET
Event Notes - Circuito Map, Pit Lane and Red Zone ↗ 2023-09-14 10:51
2023-09-14 10:51 CET
Corrida Director's Event Notes ↗ 2023-09-14 11:16
2023-09-14 11:16 CET
PU elements usados per driver up to now ↗ 2023-09-15 07:35
2023-09-15 07:35 CET
RNCs usados per driver up to now ↗ 2023-09-15 07:35
2023-09-15 07:35 CET
Self scrutineering ↗ 2023-09-15 09:36
2023-09-15 09:36 CET
Entry List ↗ 2023-09-15 10:00
2023-09-15 10:00 CET
New RNCs for this Competition ↗ 2023-09-15 11:33
2023-09-15 11:33 CET
P1 Classification ↗ 2023-09-15 12:50
2023-09-15 12:50 CET
P2 Classification ↗ 2023-09-15 16:15
2023-09-15 16:15 CET
P1 and P2 scrutineering ↗ 2023-09-15 17:24
2023-09-15 17:24 CET
Corrida Director's Note - SC2-SC1 Time ↗ 2023-09-15 18:40
2023-09-15 18:40 CET
Post-Classificação Procedure ↗ 2023-09-16 07:01
2023-09-16 07:01 CET
Post-Classificação Procedure V2 ↗ 2023-09-16 07:35
2023-09-16 07:35 CET
Event Notes v2 ↗ 2023-09-16 08:41
2023-09-16 08:41 CET
Additional Intermediate Pneus ↗ 2023-09-16 09:31
2023-09-16 09:31 CET
New PU elements for this Competition ↗ 2023-09-16 11:38
2023-09-16 11:38 CET
Infringement - Car 27 - Pit Lane Speeding ↗ 27 Nico Hülkenberg 2023-09-16 12:04
27 Nico Hülkenberg 2023-09-16 12:04 CET
Infringement - Car 55 - Pit Lane Speeding ↗ 55 Carlos Sainz 2023-09-16 12:17
55 Carlos Sainz 2023-09-16 12:17 CET
P3 Classification ↗ 2023-09-16 12:45
2023-09-16 12:45 CET
Summons - Car 2 - Alleged Impeding of Car 18 ↗ 2 Logan Sargeant 2023-09-16 16:18
2 Logan Sargeant 2023-09-16 16:18 CET
Summons - Car 1 - Alleged Impeding at Pit Exit ↗ 1 Max Verstappen 2023-09-16 16:32
1 Max Verstappen 2023-09-16 16:32 CET
Summons - Car 1 - Alleged Impeding of Car 22 ↗ 1 Max Verstappen 2023-09-16 16:33
1 Max Verstappen 2023-09-16 16:33 CET
Summons - Car 1 - Alleged Impeding between T17 and T18 ↗ 1 Max Verstappen 2023-09-16 16:33
1 Max Verstappen 2023-09-16 16:33 CET
Classificação Deleted Volta Time ↗ 2023-09-16 16:35
2023-09-16 16:35 CET
Provisional Classificação Classification ↗ 2023-09-16 16:41
2023-09-16 16:41 CET
P3 and Classificação scrutineering ↗ 2023-09-16 18:26
2023-09-16 18:26 CET
Infringement - Car 2 - Impeding of Car 18 ↗ 2 Logan Sargeant 2023-09-16 18:29
2 Logan Sargeant 2023-09-16 18:29 CET
Infringement - Car 1 - Impeding at Pit Exit ↗ 1 Max Verstappen 2023-09-16 18:43
1 Max Verstappen 2023-09-16 18:43 CET
Infringement - Car 1 - Impeding of Car 22 ↗ 1 Max Verstappen 2023-09-16 18:46
1 Max Verstappen 2023-09-16 18:46 CET
Decision - Car 1 - Alleged impeding of Car 2 ↗ 1 Max Verstappen 2023-09-16 18:46
1 Max Verstappen 2023-09-16 18:46 CET
Final Classificação Classification ↗ 2023-09-16 18:50
2023-09-16 18:50 CET
Provisional Starting Grid ↗ 2023-09-16 18:55
2023-09-16 18:55 CET
Parc Fermé issues ↗ 2023-09-17 11:05
2023-09-17 11:05 CET
Pre-Corrida Procedure ↗ 2023-09-17 11:27
2023-09-17 11:27 CET
Post-Corrida Procedure ↗ 2023-09-17 11:31
2023-09-17 11:31 CET
Infringement - Car 24 - Changes made during Parc Ferme (PU) ↗ 24 Guanyu Zhou 2023-09-17 11:53
24 Guanyu Zhou 2023-09-17 11:53 CET
Parts and parameters been replaced and or changed during Parc Fermé ↗ 2023-09-17 11:56
2023-09-17 11:56 CET
Final Starting Grid ↗ 2023-09-17 12:00
2023-09-17 12:00 CET
Infringement - Car 14 - Crossing the Pit Entry line ↗ 14 Fernando Alonso 2023-09-17 15:42
14 Fernando Alonso 2023-09-17 15:42 CET
Summons - Car 11 - Alleged overtaking by Car 23 under VSC ↗ 11 Sergio Pérez 2023-09-17 16:13
11 Sergio Pérez 2023-09-17 16:13 CET
Summons - Car 23 - Alleged overtaking of Car 11 under VSC ↗ 23 Alexander Albon 2023-09-17 16:13
23 Alexander Albon 2023-09-17 16:13 CET
Provisional Corrida Classification ↗ 2023-09-17 16:13
2023-09-17 16:13 CET
Summons - Car 23 - T13 incident with Car 11 ↗ 23 Alexander Albon 2023-09-17 16:19
23 Alexander Albon 2023-09-17 16:19 CET
Summons - Car 11 - T13 incident with Car 23 ↗ 11 Sergio Pérez 2023-09-17 16:22
11 Sergio Pérez 2023-09-17 16:22 CET
Corrida Deleted Volta Times ↗ 2023-09-17 17:56
2023-09-17 17:56 CET
Corrida scrutineering ↗ 2023-09-17 17:56
2023-09-17 17:56 CET
Infringement - Car 11 - Causing a Collision ↗ 11 Sergio Pérez 2023-09-17 18:12
11 Sergio Pérez 2023-09-17 18:12 CET
Final Corrida Classification ↗ 2023-09-17 18:15
2023-09-17 18:15 CET
Decision - Car 23 - Alleged overtaking of Car 11 under VSC ↗ 23 Alexander Albon 2023-09-17 18:15
23 Alexander Albon 2023-09-17 18:15 CET
Campeonato Pontos ↗ 2023-09-17 18:20
2023-09-17 18:20 CET
FIA official decisions and documents (fia.com) · PDF original PDF links
Record Basis · Calculation basis
Corrida order is the final classification(post-race penalties applied) · a qualificação session data 2003+ · lap times 1996+ · pit stops 2012+ (pit-lane transit, not stationary time) · Abandono = Finished(Finished·+N Voltas) non-Finished statuses
Fontes de dados: Jolpica-F1 (Ergast compatible API) · weather·Direção de prova OpenF1 (2023+) · Last fetched: 2026-09-05 23:38